{"data":{"norad_id":65858,"epoch":"2026-05-25T03:34:44.190912Z","epoch_age_seconds":58317,"freshness":"FRESH","line1":"1 65858U 25223E   26145.14912258  .00012021  00000+0  41720-3 0  9998","line2":"2 65858  53.1597 298.9059 0001044 103.8619 256.2497 15.30210176 35912","mean_motion":15.30210176,"eccentricity":0.0001044,"inclination_deg":53.1597,"raan_deg":298.9059,"arg_perigee_deg":103.8619,"mean_anomaly_deg":256.2497,"bstar":0.0004172,"rev_number":3591,"period_min":94.104719899602,"perigee_km":474.46919910193,"apogee_km":475.90017266994,"semimajor_km":6853.3216858859,"source":"CELESTRAK","updated_at":"2026-05-25T13:38:20.968949Z"}}